User: anonymous   Login
Location: Unspecified
(0.0000°N, 0.0000°E)
Time: 10:49:52
(UTC+00:00)
Language:

UFO F6 - Orbit

View from above orbital plane
View from above orbital plane
View from above satellite
View from above satellite

Ground track
Ground track

The orbit data is extracted from the following two-line orbital elements,

1 23696U 95057A   18256.52122319 0.00000000  00000-0  00000-0 0    02
2 23696   9.4067  27.1553 0001377 144.7578 215.2112  0.98758616    05
Epoch (UTC): 13 September 2018 12:30:33
Eccentricity: 0.0001377
inclination: 9.4067°
perigee height: 36210 km
apogee height: 36221 km
right ascension of ascending node: 27.1553°
argument of perigee: 144.7578°
revolutions per day: 0.98758616
mean anomaly at epoch: 215.2112°
orbit number at epoch: 0

The dashed part of the orbit path shows where the satellite is in the earth's shadow,  

DLR